• In Austria
  • List of Countries
  • For 7 days
  • Water Temperature
  • Satellite Maps
  • Weather Map
  • News
  • Weather Widgets
  • user-avatar
    Login

    Hourly Weather Novaya Derevnya

    Today, 16 July, Monday

    Time Temperature Precipitation Wind Pressure Humidity
    00:00 +18°C° 0 mm 2 mps 738 mmHg 96%
    01:00 +18°C° 0 mm 2 mps 738 mmHg 96%
    02:00 +17°C° 0 mm 2 mps 737 mmHg 97%
    03:00 +18°C° 0 mm 2 mps 738 mmHg 97%
    04:00 +18°C° 0 mm 2 mps 738 mmHg 97%
    05:00 +18°C° 0 mm 2 mps 738 mmHg 97%
    06:00 +20°C° 0 mm 3 mps 738 mmHg 92%
    07:00 +21°C° 0 mm 3 mps 738 mmHg 87%
    08:00 +24°C° 0 mm 3 mps 738 mmHg 82%
    09:00 +25°C° 0.5 mm 4 mps 738 mmHg 79%
    10:00 +25°C° 0.5 mm 4 mps 738 mmHg 75%
    11:00 +26°C° 0.5 mm 4 mps 738 mmHg 72%
    12:00 +27°C° 0.4 mm 4 mps 737 mmHg 72%
    13:00 +27°C° 0.4 mm 4 mps 737 mmHg 72%
    14:00 +27°C° 0.4 mm 4 mps 737 mmHg 72%
    15:00 +27°C° 0.3 mm 4 mps 737 mmHg 73%
    16:00 +26°C° 0.3 mm 4 mps 737 mmHg 74%
    17:00 +26°C° 0.3 mm 3 mps 737 mmHg 76%
    18:00 +25°C° 0.2 mm 3 mps 737 mmHg 80%
    19:00 +24°C° 0.2 mm 3 mps 737 mmHg 83%
    20:00 +21°C° 0.2 mm 3 mps 737 mmHg 87%
    21:00 +21°C° 0 mm 3 mps 737 mmHg 87%
    22:00 +20°C° 0 mm 3 mps 737 mmHg 86%
    23:00 +20°C° 0 mm 3 mps 737 mmHg 86%

    Tomorrow, 17 July, Tuesday

    Time Temperature Precipitation Wind Pressure Humidity
    00:00 +19°C° 0 mm 3 mps 737 mmHg 87%
    01:00 +19°C° 0 mm 3 mps 736 mmHg 88%
    02:00 +19°C° 0 mm 3 mps 736 mmHg 90%
    03:00 +19°C° 0 mm 3 mps 736 mmHg 89%
    04:00 +19°C° 0 mm 4 mps 736 mmHg 89%
    05:00 +19°C° 0 mm 4 mps 736 mmHg 89%
    06:00 +21°C° 0 mm 4 mps 736 mmHg 83%
    07:00 +22°C° 0 mm 5 mps 736 mmHg 77%
    08:00 +25°C° 0 mm 5 mps 736 mmHg 71%
    09:00 +26°C° 0 mm 5 mps 736 mmHg 67%
    10:00 +27°C° 0 mm 6 mps 736 mmHg 62%
    11:00 +28°C° 0 mm 6 mps 735 mmHg 57%
    12:00 +29°C° 0 mm 6 mps 735 mmHg 57%
    13:00 +29°C° 0 mm 6 mps 735 mmHg 56%
    14:00 +29°C° 0 mm 6 mps 734 mmHg 56%
    15:00 +28°C° 0.2 mm 6 mps 734 mmHg 61%
    16:00 +28°C° 0.2 mm 5 mps 734 mmHg 67%
    17:00 +27°C° 0.2 mm 5 mps 734 mmHg 72%
    18:00 +26°C° 0 mm 5 mps 734 mmHg 76%
    19:00 +23°C° 0 mm 4 mps 734 mmHg 80%
    20:00 +22°C° 0 mm 4 mps 734 mmHg 84%
    21:00 +22°C° 0 mm 4 mps 734 mmHg 86%
    22:00 +21°C° 0 mm 4 mps 734 mmHg 89%
    23:00 +21°C° 0 mm 4 mps 734 mmHg 91%

    Day after tomorrow, 18 July, Wednesday

    Time Temperature Precipitation Wind Pressure Humidity
    00:00 +21°C° 0 mm 4 mps 734 mmHg 92%
    01:00 +21°C° 0 mm 4 mps 734 mmHg 94%
    02:00 +20°C° 0 mm 4 mps 734 mmHg 95%
    03:00 +21°C° 0 mm 4 mps 734 mmHg 94%
    04:00 +21°C° 0 mm 4 mps 734 mmHg 93%
    05:00 +21°C° 0 mm 4 mps 734 mmHg 92%
    06:00 +21°C° 0 mm 4 mps 734 mmHg 90%
    07:00 +21°C° 0 mm 4 mps 734 mmHg 88%
    08:00 +22°C° 0 mm 5 mps 734 mmHg 85%
    09:00 +23°C° 0 mm 5 mps 734 mmHg 78%
    10:00 +26°C° 0 mm 5 mps 734 mmHg 71%
    11:00 +27°C° 0 mm 5 mps 734 mmHg 64%
    12:00 +27°C° 0.3 mm 5 mps 734 mmHg 64%
    13:00 +28°C° 0.3 mm 5 mps 734 mmHg 63%
    14:00 +28°C° 0.3 mm 5 mps 734 mmHg 62%
    15:00 +27°C° 0.4 mm 5 mps 734 mmHg 67%
    16:00 +26°C° 0.4 mm 5 mps 734 mmHg 72%
    17:00 +25°C° 0.4 mm 4 mps 734 mmHg 78%
    18:00 +23°C° 0.1 mm 4 mps 734 mmHg 81%
    19:00 +22°C° 0.1 mm 3 mps 734 mmHg 85%
    20:00 +21°C° 0.1 mm 3 mps 734 mmHg 89%
    21:00 +20°C° 0 mm 3 mps 734 mmHg 90%
    22:00 +20°C° 0 mm 3 mps 734 mmHg 92%
    23:00 +19°C° 0 mm 3 mps 734 mmHg 93%

    19 July, Thursday

    Time Temperature Precipitation Wind Pressure Humidity
    00:00 +19°C° 0.1 mm 3 mps 734 mmHg 94%
    01:00 +19°C° 0.1 mm 3 mps 734 mmHg 94%
    02:00 +18°C° 0.1 mm 3 mps 734 mmHg 95%
    03:00 +18°C° 0.2 mm 3 mps 734 mmHg 95%
    04:00 +18°C° 0.2 mm 3 mps 734 mmHg 95%
    05:00 +18°C° 0.2 mm 3 mps 734 mmHg 95%
    06:00 +18°C° 0.3 mm 3 mps 734 mmHg 95%
    07:00 +19°C° 0.3 mm 3 mps 734 mmHg 95%
    08:00 +19°C° 0.3 mm 2 mps 734 mmHg 95%
    09:00 +20°C° 0.1 mm 2 mps 734 mmHg 92%
    10:00 +21°C° 0.1 mm 2 mps 735 mmHg 90%
    11:00 +23°C° 0.1 mm 2 mps 735 mmHg 87%
    12:00 +24°C° 0.4 mm 2 mps 735 mmHg 82%
    13:00 +25°C° 0.4 mm 2 mps 735 mmHg 77%
    14:00 +26°C° 0.4 mm 2 mps 735 mmHg 73%
    15:00 +26°C° 0.6 mm 2 mps 735 mmHg 77%
    16:00 +26°C° 0.6 mm 2 mps 735 mmHg 81%
    17:00 +25°C° 0.6 mm 2 mps 735 mmHg 85%
    18:00 +24°C° 0.2 mm 2 mps 735 mmHg 88%
    19:00 +23°C° 0.2 mm 2 mps 735 mmHg 92%
    20:00 +21°C° 0.2 mm 2 mps 735 mmHg 96%
    21:00 +20°C° 0.6 mm 2 mps 735 mmHg 96%
    22:00 +20°C° 0.6 mm 2 mps 735 mmHg 97%
    23:00 +19°C° 0.6 mm 2 mps 735 mmHg 97%

    20 July, Friday

    Time Temperature Precipitation Wind Pressure Humidity
    00:00 +18°C° 0 mm 2 mps 735 mmHg 97%
    01:00 +18°C° 0 mm 2 mps 735 mmHg 97%
    02:00 +18°C° 0 mm 2 mps 735 mmHg 98%
    03:00 +18°C° 0 mm 2 mps 735 mmHg 97%
    04:00 +18°C° 0 mm 2 mps 735 mmHg 97%
    05:00 +18°C° 0 mm 2 mps 735 mmHg 97%
    06:00 +19°C° 0 mm 2 mps 735 mmHg 93%
    07:00 +21°C° 0 mm 2 mps 735 mmHg 89%
    08:00 +23°C° 0 mm 2 mps 736 mmHg 85%
    09:00 +24°C° 0.8 mm 2 mps 735 mmHg 83%
    10:00 +25°C° 0.8 mm 3 mps 735 mmHg 80%
    11:00 +26°C° 0.8 mm 3 mps 735 mmHg 77%
    12:00 +27°C° 0.3 mm 3 mps 735 mmHg 73%
    13:00 +28°C° 0.3 mm 3 mps 735 mmHg 68%
    14:00 +29°C° 0.3 mm 3 mps 735 mmHg 64%
    15:00 +28°C° 0.3 mm 3 mps 735 mmHg 67%
    16:00 +28°C° 0.3 mm 3 mps 735 mmHg 70%
    17:00 +27°C° 0.3 mm 3 mps 735 mmHg 74%
    18:00 +26°C° 0.1 mm 2 mps 735 mmHg 80%
    19:00 +24°C° 0.1 mm 2 mps 735 mmHg 86%
    20:00 +23°C° 0.1 mm 2 mps 735 mmHg 92%
    21:00 +22°C° 0 mm 1 mps 735 mmHg 93%
    22:00 +22°C° 0 mm 1 mps 735 mmHg 95%
    23:00 +21°C° 0 mm 1 mps 735 mmHg 96%

    21 July, Saturday

    Time Temperature Precipitation Wind Pressure Humidity
    00:00 +21°C° 0 mm 1 mps 735 mmHg 96%
    01:00 +20°C° 0 mm 1 mps 735 mmHg 96%
    02:00 +20°C° 0 mm 1 mps 735 mmHg 97%
    03:00 +20°C° 0.1 mm 1 mps 735 mmHg 97%
    04:00 +20°C° 0.1 mm 1 mps 735 mmHg 97%
    05:00 +21°C° 0.1 mm 1 mps 735 mmHg 97%
    06:00 +22°C° 0 mm 1 mps 735 mmHg 91%
    07:00 +24°C° 0 mm 1 mps 735 mmHg 86%
    08:00 +25°C° 0 mm 1 mps 736 mmHg 81%
    09:00 +27°C° 0 mm 2 mps 736 mmHg 74%
    10:00 +28°C° 0 mm 2 mps 736 mmHg 67%
    11:00 +29°C° 0 mm 2 mps 736 mmHg 60%
    12:00 +29°C° 0.1 mm 2 mps 735 mmHg 60%
    13:00 +29°C° 0.1 mm 3 mps 735 mmHg 60%
    14:00 +30°C° 0.1 mm 3 mps 735 mmHg 61%
    15:00 +29°C° 0.3 mm 3 mps 735 mmHg 64%
    16:00 +29°C° 0.3 mm 2 mps 735 mmHg 67%
    17:00 +29°C° 0.3 mm 2 mps 735 mmHg 70%
    18:00 +27°C° 0.5 mm 2 mps 735 mmHg 77%
    19:00 +25°C° 0.5 mm 2 mps 735 mmHg 84%
    20:00 +23°C° 0.5 mm 1 mps 735 mmHg 91%
    21:00 +23°C° 1.1 mm 1 mps 735 mmHg 92%
    22:00 +22°C° 1.1 mm 1 mps 735 mmHg 93%
    23:00 +22°C° 1.1 mm 1 mps 735 mmHg 94%
    Show more